Weather History for White Plains, NY

Change the Weather History Date:

Friday, January 17, 2014

  Actual Average Record
Temperature  
Mean Temperature 33 °F -  
Max Temperature 42 °F 31 °F 56 °F (1990)
Min Temperature 24 °F 18 °F -7 °F (1982)
Degree Days  
Heating Degree Days 32    
Moisture  
Dew Point 26 °F    
Average Humidity 78    
Maximum Humidity 91    
Minimum Humidity 57    
Precipitation  
Precipitation 0.00 in - - ()
Sea Level Pressure  
Sea Level Pressure 29.94 in    
Wind  
Wind Speed 3 mph (SSW)    
Max Wind Speed 10 mph    
Max Gust Speed 17 mph    
Visibility 9 miles    
Events      
Averages and records for this station are not official NWS values.
T = Trace of Precipitation, MM = Missing Value Source: NWS Daily Summary

Daily Weather History Graph

Daily Weather History Graph

Search for Another Location

Airport:

Trip Planner

Search our weather history database for the weather conditions in past years. The results will help you decide how hot, cold, wet, or windy it might be!

Date:

Astronomy

Jan. 17, 2014 Rise Set
Actual Time 7:16 AM EST 4:53 PM EST
Civil Twilight 6:46 AM EST 5:23 PM EST
Nautical Twilight 6:12 AM EST 5:57 PM EST
Astronomical Twilight 5:39 AM EST 6:30 PM EST
Moon 6:38 PM EST (1/17) 7:42 AM EST (1/17)
Length of Visible Light 10h 37m
Length of Day
9h 36m
Full, 98% of the Moon is Illuminated
Jan 17
Full
Jan 24
Last Quarter
Jan 30
New
Feb 6
First Quarter
Feb 14
Full

Hourly Weather History & Observations

Time (EST) Temp. Windchill Dew Point Humidity Pressure Visibility Wind Dir Wind Speed Gust Speed Precip Events Conditions
12:56 AM 27.0 °F 23.0 °F 23.0 °F 85% 29.93 in 10.0 mi WNW 3.5 mph - N/A   Clear
1:56 AM 27.0 °F - 24.1 °F 89% 29.94 in 10.0 mi Calm Calm - N/A   Clear
2:56 AM 25.0 °F 20.7 °F 21.9 °F 88% 29.95 in 9.0 mi WNW 3.5 mph - N/A   Clear
3:56 AM 25.0 °F 20.7 °F 21.9 °F 88% 29.94 in 8.0 mi WNW 3.5 mph - N/A   Clear
4:56 AM 24.1 °F - 21.0 °F 88% 29.95 in 7.0 mi Calm Calm - N/A   Clear
5:56 AM 24.1 °F - 21.9 °F 91% 29.96 in 7.0 mi Calm Calm - N/A   Clear
6:56 AM 25.0 °F - 21.9 °F 88% 29.96 in 7.0 mi Calm Calm - N/A   Clear
8:56 AM 30.9 °F 26.2 °F 26.1 °F 82% 29.99 in 7.0 mi SSE 4.6 mph - N/A   Scattered Clouds
9:56 AM 34.0 °F 28.8 °F 24.1 °F 67% 30.00 in 9.0 mi SSE 5.8 mph - N/A   Partly Cloudy
10:56 AM 37.0 °F 31.0 °F 24.1 °F 59% 29.98 in 10.0 mi South 8.1 mph - N/A   Clear
11:56 AM 39.0 °F 32.8 °F 25.0 °F 57% 29.95 in 10.0 mi South 9.2 mph - N/A   Partly Cloudy
12:56 PM 42.1 °F 36.1 °F 28.9 °F 60% 29.93 in 10.0 mi South 10.4 mph 17.3 mph N/A   Scattered Clouds
1:56 PM 41.0 °F 34.7 °F 28.9 °F 62% 29.93 in 10.0 mi South 10.4 mph - N/A   Scattered Clouds
2:56 PM 41.0 °F 37.1 °F 28.0 °F 60% 29.92 in 10.0 mi SSW 5.8 mph - N/A   Scattered Clouds
3:56 PM 41.0 °F 38.0 °F 28.9 °F 62% 29.93 in 10.0 mi SSE 4.6 mph - N/A   Partly Cloudy
4:56 PM 37.9 °F - 28.9 °F 70% 29.93 in 10.0 mi Calm Calm - N/A   Clear
5:56 PM 35.1 °F - 28.9 °F 78% 29.94 in 10.0 mi Calm Calm - N/A   Clear
6:56 PM 33.1 °F - 28.0 °F 82% 29.94 in 9.0 mi Calm Calm - N/A   Clear
7:56 PM 33.1 °F 28.7 °F 28.9 °F 85% 29.94 in 8.0 mi WNW 4.6 mph - N/A   Clear
8:56 PM 33.1 °F - 30.0 °F 89% 29.94 in 8.0 mi Calm Calm - N/A   Mostly Cloudy
9:56 PM 33.1 °F - 28.9 °F 85% 29.94 in 8.0 mi Calm Calm - N/A   Clear
10:56 PM 32.0 °F - 28.0 °F 85% 29.93 in 8.0 mi Calm Calm - N/A   Mostly Cloudy
11:56 PM 32.0 °F 27.5 °F 28.9 °F 88% 29.89 in 7.0 mi NW 4.6 mph - N/A   Scattered Clouds